Weather Roundup
Issued by NWS Corpus Christi, TX

Home | Current Version | Previous Version | Text Only | Print | Product List | Glossary On
Versions: 1 2 3 4 5 6 7 8 9 10 11 12 13 14 15 16 17 18 19 20 21 22 23 24 25 26 27 28 29 30 31 32 33 34 35 36 37 38 39 40 41 42 43 44 45 46 47 48 49 50
000
ASUS44 KCRP 281810
HRRCRP

SOUTH TEXAS REGIONAL WEATHER ROUNDUP
NATIONAL WEATHER SERVICE CORPUS CHRISTI TX
1200 PM CST SAT FEB 28 2015


TXZ229>244-281900-
...CORPUS CHRISTI AREA OBSERVATIONS...

CITY           SKY/WX    TMP DP  RH WIND       PRES   REMARKS
CORPUS CHRISTI LGT RAIN  53  52  96 N13       30.19F FOG
NAS CORPUS CHR RAIN      55  32  41 N13       30.16F
ROCKPORT       LGT RAIN  56  53  90 NE14      30.18F FOG
KINGSVILLE NAS CLOUDY    50  50 100 N15       30.20F FOG
ALICE          LGT RAIN  46  44  93 NW12G24   30.21F FOG
FALFURRIAS     CLOUDY    46  44  93 NW9       30.22F
$$

...VICTORIA AREA OBSERVATIONS...

CITY           SKY/WX    TMP DP  RH WIND       PRES   REMARKS
VICTORIA       CLOUDY    49  46  90 NE13      30.24F FOG
BEEVILLE       DRIZZLE   48  48 100 NE6       30.21F
PLEASANTON     LGT RAIN  38  37  95 N6        30.27S
SAN ANTONIO    LGT RAIN  38  35  89 N13       30.26F FOG     WCI  30
$$

...LAREDO AREA OBSERVATIONS...

CITY           SKY/WX    TMP DP  RH WIND       PRES   REMARKS
LAREDO         LGT RAIN  40  38  93 N10       30.28F FOG     WCI  33
COTULLA        CLOUDY    40  38  93 N7        30.27F FOG
DEL RIO        CLOUDY    40  36  86 VRB6      30.25F
MCALLEN        CLOUDY    45  42  89 W10       30.23F
HEBBRONVILLE   RAIN     N/A N/A N/A NW9       30.23F
$$

...OTHER TEXAS OBSERVATIONS...

CITY           SKY/WX    TMP DP  RH WIND       PRES   REMARKS
BROWNSVILLE    CLOUDY    51  48  89 NW10      30.19F FOG
HOUSTON        CLOUDY    51  36  56 E10       30.31F
COL. STATION   CLOUDY    45  32  60 NE5       30.31F
AUSTIN         CLOUDY    35  35 100 N10       30.31F WCI  27
WACO           CLOUDY    32  29  88 N10       30.36F FOG     WCI  24
FORT WORTH     FRZ RAIN  29  26  89 N8        30.39F FOG
WICHITA FALLS  FRZ RAIN  25  22  88 E6        30.39R FOG
LUBBOCK        CLOUDY    20  17  88 S7        30.20S FOG
EL PASO        MOSUNNY   44  27  51 CALM      30.01F
$$

...MARINE OBSERVATIONS...

STATION/POSITION TIME  SKY/WX   TEMP    WIND        PRES    VSBY  WAVE   SWELL
                                AIR SEA DIR/SP/G                  HT/PER HT/PER
                 (UTC)          (F)     (DEG/KT/KT) (MB)    (MI)  (FT/S) (FT/S)
PORT ARANSAS     1800            58 54  350/  7/ 11 1021.7F
BUOY 90 E PORT A 1800            66 67   90/ 19/ 23 1022.6F        10/ 8
BUOY 45 SE BAFFI 1800            62 69  240/ 10/ 14 1021.1R         9/ 9   8/ 9
BUOY 200 E PT IS 1800            70 70  110/ 17/ 21 1021.2F         9/ 8   7/ 8
BUOY 15 E GALVES 1800            53 56   70/ 19/ 23 1024.7F         6/ 8   3/ 8
$$



USA.gov is the U.S. government's official web portal to all federal, state and local government web resources and services.